Location: *
(57.8420°S, 159.8600°W)
Time: 04:45:16
(UTC+00:00)

Cosmos 1656 Rocket - Pass Details

Date: 18 May 2021
Orbit: 794 x 848 km, 71.1° (Epoch: 20 June)

Event Time Altitude Azimuth Distance (km) Brightness Sun altitude
Rises 04:14:08 0° 222° (SW) 3,383 7.2 -13.7°
Reaches altitude 10° 04:16:47 10° 213° (SSW) 2,439 6.3 -14.0°
Maximum altitude 04:21:58 38° 145° (SE) 1,246 4.2 -14.7°
Enters shadow 04:24:50 22° 93° (E) 1,697 4.7 -15.1°
